Location: Newark
(34.1333°N, 7.9667°W)
Time: 09:49:40
(UTC+00:00)

A-11 Canister half - All Passes

Search period start: 29 November 2021 00:00
Search period end: 09 December 2021 00:00
Orbit: 1516 x 1684 km, 47.2° (Epoch: 28 November)

Date Brightness Start Highest point End Pass type
(mag) Time Alt. Az. Time Alt. Az. Time Alt. Az.
29 Nov - 07:01:22 10° SSW 07:10:22 47° SE 07:19:41 10° ENE daylight
29 Nov - 09:05:31 10° WSW 09:15:11 65° NNW 09:25:13 10° NE daylight
29 Nov - 11:12:43 10° WNW 11:21:54 39° N 11:31:16 10° ENE daylight
29 Nov - 13:19:21 10° NW 13:29:05 49° NNE 13:38:51 10° E daylight
29 Nov - 15:24:38 10° NW 15:34:48 76° SW 15:44:50 10° SE daylight
29 Nov - 17:31:52 10° W 17:38:41 21° SW 17:45:27 10° SSW daylight
30 Nov - 06:38:39 10° SSW 06:47:30 44° SE 06:56:39 10° ENE visible
30 Nov - 08:42:31 10° WSW 08:52:12 67° NNW 09:02:15 10° NE daylight
30 Nov - 10:49:40 10° WNW 10:58:50 39° N 11:08:11 10° ENE daylight
30 Nov - 12:56:22 10° NW 13:06:03 48° NNE 13:15:46 10° E daylight
30 Nov - 15:01:40 10° NW 15:11:51 80° SW 15:21:57 10° SE daylight
30 Nov - 17:08:36 10° WNW 17:15:50 23° SW 17:23:01 10° S daylight
01 Dec - 06:15:58 10° SSW 06:24:38 41° SE 06:33:35 10° ENE visible
01 Dec - 08:19:33 10° WSW 08:29:13 70° NNW 08:39:16 10° NE daylight
01 Dec - 10:26:36 10° WNW 10:35:45 40° N 10:45:08 10° ENE daylight
01 Dec - 12:33:23 10° NW 12:43:00 46° NNE 12:52:41 10° E daylight
01 Dec - 14:38:43 10° NW 14:48:54 84° SW 14:59:02 10° SE daylight
01 Dec - 16:45:22 10° WNW 16:52:59 25° SW 17:00:32 10° S daylight
02 Dec - 05:53:17 10° SSW 06:01:46 38° SE 06:10:31 10° ENE visible
02 Dec - 07:56:36 10° WSW 08:06:15 74° NNW 08:16:18 10° NE daylight
02 Dec - 10:03:32 10° WNW 10:12:41 40° N 10:22:05 10° ENE daylight
02 Dec - 12:10:24 10° NW 12:19:56 45° NNE 12:29:34 10° E daylight
02 Dec - 14:15:45 10° NW 14:25:57 88° SW 14:36:07 10° SE daylight
02 Dec - 16:22:11 10° WNW 16:30:07 27° SW 16:38:00 10° S daylight
03 Dec - 05:30:39 10° S 05:38:55 35° SE 05:47:26 10° ENE visible
03 Dec - 07:33:39 10° WSW 07:43:17 77° NNW 07:53:20 10° NE daylight
03 Dec - 09:40:29 10° W 09:49:37 41° N 09:59:02 10° ENE daylight
03 Dec - 11:47:24 10° NW 11:56:53 44° NNE 12:06:28 10° E daylight
03 Dec - 13:52:47 10° NW 14:02:59 88° NE 14:13:10 10° SE daylight
03 Dec - 15:59:01 10° WNW 16:07:15 29° SW 16:15:26 10° S daylight
04 Dec - 05:08:02 10° S 05:16:05 32° SE 05:24:20 10° ENE visible
04 Dec - 07:10:43 10° WSW 07:20:20 81° NW 07:30:21 10° NE daylight
04 Dec - 09:17:24 10° W 09:26:34 42° NNW 09:35:59 10° ENE daylight
04 Dec - 11:24:25 10° NW 11:33:49 43° NNE 11:43:21 10° E daylight
04 Dec - 13:29:50 10° NW 13:40:01 84° NE 13:50:13 10° SE daylight
04 Dec - 15:35:53 10° WNW 15:44:23 32° SW 15:52:50 10° S daylight
05 Dec - 04:45:27 10° S 04:53:13 30° SE 05:01:12 10° ENE visible
05 Dec - 06:47:48 10° SW 06:57:23 85° NW 07:07:23 10° NE visible
05 Dec - 08:54:21 10° W 09:03:30 42° NNW 09:12:57 10° NE daylight
05 Dec - 11:01:26 10° WNW 11:10:45 42° NNE 11:20:15 10° E daylight
05 Dec - 13:06:52 10° NW 13:17:03 80° NE 13:27:15 10° ESE daylight
05 Dec - 15:12:47 10° WNW 15:21:30 34° SW 15:30:12 10° S daylight
06 Dec - 04:22:54 10° S 04:30:23 27° SE 04:38:04 10° ENE visible
06 Dec - 06:24:54 10° SW 06:34:27 88° NW 06:44:25 10° NE visible
06 Dec - 08:31:18 10° W 08:40:27 43° NNW 08:49:55 10° NE daylight
06 Dec - 10:38:25 10° WNW 10:47:41 41° N 10:57:08 10° E daylight
06 Dec - 12:43:56 10° NW 12:54:04 77° NNE 13:04:16 10° ESE daylight
06 Dec - 14:49:41 10° WNW 14:58:37 37° SW 15:07:31 10° SSE daylight
07 Dec - 04:00:23 10° S 04:07:33 25° SE 04:14:53 10° ENE visible
07 Dec - 06:02:00 10° SW 06:11:31 87° SE 06:21:26 10° NE visible
07 Dec - 08:08:16 10° W 08:17:25 44° NNW 08:26:54 10° NE daylight
07 Dec - 10:15:25 10° WNW 10:24:37 40° N 10:34:00 10° ENE daylight
07 Dec - 12:21:00 10° NW 12:31:05 74° NNE 12:41:16 10° ESE daylight
07 Dec - 14:26:38 10° WNW 14:35:44 39° SW 14:44:50 10° SSE daylight
08 Dec - 03:37:54 10° S 03:44:43 23° SE 03:51:40 10° ENE visible
08 Dec - 05:39:07 10° SW 05:48:35 83° SE 05:58:28 10° NE visible
08 Dec - 07:45:12 10° W 07:54:22 46° NNW 08:03:52 10° NE daylight
08 Dec - 09:52:26 10° WNW 10:01:33 40° N 10:10:54 10° ENE daylight
08 Dec - 11:58:02 10° NW 12:08:06 70° NNE 12:18:15 10° ESE daylight
08 Dec - 14:03:34 10° WNW 14:12:50 42° SW 14:22:07 10° SSE daylight
